Regional Weather Roundup
Issued by NWS

Home | Current Version | Previous Version | Text Only | Print | Product List | Glossary On
Versions: 1 2 3 4 5 6 7 8 9 10 11 12 13 14 15 16 17 18 19 20 21 22 23 24 25 26 27 28 29 30 31 32 33 34 35 36 37 38 39 40 41 42 43 44 45 46 47 48 49 50
000
ASUS43 KLSX 300610
RWRMO

WEATHER SUMMARY FOR MISSOURI
NATIONAL WEATHER SERVICE SPRINGFIELD MO
100 AM CDT SUN APR 30 2017

NOTE: "FAIR" INDICATES FEW OR NO CLOUDS BELOW 12,000 FEET WITH NO
       SIGNIFICANT WEATHER AND/OR OBSTRUCTIONS TO VISIBILITY.
       CURRENT SKY AND/OR WEATHER CONDITIONS ARE NOT AVAILABLE FOR
       CHILLICOTHE AND FARMINGTON.

MOZ001>031-035>038-043-044-053-054-300700-
...NORTHERN AND WESTERN MISSOURI...

CITY           SKY/WX    TMP DP  RH WIND       PRES   REMARKS
KANSAS CTY INT CLOUDY    43  42  97 N16G26    29.72F
6HR MIN TEMP:  43; 6HR MAX TEMP:  45; 6HR PCP:  0.36;

KANSAS C DTWN  CLOUDY   N/A N/A N/A NW14G23   29.68F
                                      6HR PCP:  0.61;

LEE`S SUMMIT   LGT RAIN  49  49 100 E39G58    29.52F
6HR MIN TEMP:  44; 6HR MAX TEMP:  49; 6HR PCP:  1.02;

ST JOSEPH      LGT RAIN  42  42 100 N15       29.78F FOG
6HR MIN TEMP:  42; 6HR MAX TEMP:  45; 6HR PCP:  0.06;

CHILLICOTHE      N/A     43  43 100 E14G22    29.77F
6HR MIN TEMP:  43; 6HR MAX TEMP:  44; 6HR PCP:  0.29;

KIRKSVILLE     LGT RAIN  42  30  62 NE15      29.88F
6HR MIN TEMP:  42; 6HR MAX TEMP:  43; 6HR PCP:  0.36;


$$
MOZ066>068-077>081-088>096-101>105-300700-
...SOUTHWEST MISSOURI...

CITY           SKY/WX    TMP DP  RH WIND       PRES   REMARKS
SPRINGFIELD    LGT RAIN  63  61  93 NE12      29.72R FOG
6HR MIN TEMP:  63; 6HR MAX TEMP:  64; 6HR PCP:  0.76;

JOPLIN         TSTM      63  62  97 E9        29.63R
6HR MIN TEMP:  57; 6HR MAX TEMP:  63; 6HR PCP:  0.79;

BRANSON        RAIN      63  63 100 E14       29.71F

$$
MOZ032>034-039>042-045>050-055>058-069>072-300700-
...CENTRAL MISSOURI...

CITY           SKY/WX    TMP DP  RH WIND       PRES   REMARKS
COLUMBIA       HVY RAIN  47  47 100 NE7       29.86  FOG
6HR MIN TEMP:  47; 6HR MAX TEMP:  50; 6HR PCP:  0.46;

JEFFERSON CITY HVY RAIN  53  49  86 N9        29.84F FOG
6HR MIN TEMP:  52; 6HR MAX TEMP:  56; 6HR PCP:  0.51;

ROLLA          HVY RAIN  61  32  33 E10       29.79S
6HR MIN TEMP:  53; 6HR MAX TEMP:  61; 6HR PCP:  1.26;

SEDALIA        RAIN      48  48 100 NW6       29.85R FOG
6HR MIN TEMP:  47; 6HR MAX TEMP:  50; 6HR PCP:  0.66;

WHITEMAN AFB   HVY RAIN  45  45 100 NE8       29.81S
OSAGE BEACH    RAIN      55  55 100 N6        29.79F

$$
MOZ051-052-059>065-300700-
...EAST CENTRAL MISSOURI...

CITY           SKY/WX    TMP DP  RH WIND       PRES   REMARKS
ST LOUIS INTL  LGT RAIN  55  52  89 N8        29.84S FOG
6HR MIN TEMP:  52; 6HR MAX TEMP:  56; 6HR PCP:  0.67;

SPIRIT OF STL  LGT RAIN  56  56 100 N6        29.82F
6HR MIN TEMP:  51; 6HR MAX TEMP:  57; 6HR PCP:  0.69;


$$
MOZ072>076-082>087-097>100-106>115-300700-
...SOUTH CENTRAL AND SOUTHEAST MISSOURI...

CITY           SKY/WX    TMP DP  RH WIND       PRES   REMARKS
CAPE GIRARDEAU LGT RAIN  64  62  93 E9        29.80F
6HR MIN TEMP:  64; 6HR MAX TEMP:  79;

FARMINGTON     LGT RAIN  62  61  96 CALM      29.84F
6HR MIN TEMP:  62; 6HR MAX TEMP:  62; 6HR PCP:  0.80;

POPLAR BLUFF   LGT RAIN  65  65 100 N10       29.76F
6HR MIN TEMP:  65; 6HR MAX TEMP:  81; 6HR PCP:  1.11;


$$




USA.gov is the U.S. government's official web portal to all federal, state and local government web resources and services.